User: anonymous   Login
Location: Agadir Mansour Mhndou
(31.2424°N, 8.7730°W)
Time: 13:41:32
(UTC+00:00)
Language:

SL-16 R/B - Orbit

View from above orbital plane
View from above orbital plane
View from above satellite
View from above satellite

Ground track
Ground track

The orbit data is extracted from the following two-line orbital elements,

1 31793U 07029B   22019.51477068 -.00000264  00000-0 -11298-3 0  9991
2 31793  70.9759 105.7478 0002191 264.5638 106.8258 14.14457878751801
Epoch (UTC): 19 January 2022 12:21:16
Eccentricity: 0.0002191
inclination: 70.9759°
perigee height: 842 km
apogee height: 846 km
right ascension of ascending node: 105.7478°
argument of perigee: 264.5638°
revolutions per day: 14.14457878
mean anomaly at epoch: 106.8258°
orbit number at epoch: 75180

The dashed part of the orbit path shows where the satellite is in the earth's shadow,  

DLR